Location: Arrien
(42.8963°N, 1.0429°E)
Time: 10:09:42
(UTC+00:00)

OceanSat 1 rocket - Pass Details

Date: 11 December 2025
Orbit: 688 x 726 km, 98.6° (Epoch: 21 January)

Event Time Altitude Azimuth Distance (km) Brightness Sun altitude
Rises 18:26:54 0° 160° (SSE) 3,085 7.9 -22.1°
Reaches altitude 10° 18:29:09 10° 159° (SSE) 2,165 7.0 -22.5°
Maximum altitude 18:33:52 77° 75° (ENE) 722 4.4 -23.4°
Drops below altitude 10° 18:38:36 10° 349° (N) 2,160 7.1 -24.2°
Sets 18:40:51 0° 348° (NNW) 3,077 8.0 -24.6°
